Content
SEND FEEDBACK

Daily
Averages
Monthly
Summary
Pakistan

CHERAT, PAKISTAN


Home > Asia > Pakistan
Elevation: 4501 feet     Latitude: 33 49N     Longitude: 071 52E

WEATHER
 
SELECT A DAY
Number of Records: 80,810;   Date Range: 5/17/99 - 12/23/14
 
SHARE

PRINT THIS DATA

[ ← Previous Day ]
WEATHER ALMANAC - JANUARY 31, 2013
[ Next Day → ]
[ °C ]   °F
Weather ElementAverageHighLow
Temperature60 °F71.6 °F (3:00 pm)48.2 °F (5:00 am)
Dewpoint42.5 °F46.4 °F (2:00 am)39.2 °F (8:00 pm)
Humidity54.3 %76 % (4:00 am)35 % (3:00 pm)
Barometer30.12 in30.18 in (9:00 am)30.06 in (4:00 pm)

Weather ElementAverage
Weather ElementTotal
Precipitation---
Heating Degree Days5.1 (Base 65)
Growing Degree Days9.9 (Base 50)
Averaged from 21 records on January 31, 2013
WEATHER CONDITIONS BREAKOUT
WIND DIRECTION BREAKOUT
WEATHER BY HOUR - JANUARY 31, 2013
[ °C ]   °F
Local TimeTemperatureDewpointHumidityBarometerVisibilityWind DirectionWind SpeedGust SpeedPrecipitationEventsConditions
2:00 AM57.2 °F46.4 °F67 %30.12 inNorthHaze
3:00 AM53.6 °F44.6 °F72 %30.12 inNorthHaze
4:00 AM51.8 °F44.6 °F76 %30.12 inNorthDrizzle
5:00 AM48.2 °F41.0 °F76 %30.12 inNorthHaze
6:00 AM48.2 °F41.0 °F76 %30.12 inNorthHaze
7:00 AM48.2 °F41.0 °F76 %30.15 inNorthHaze
8:00 AM59.0 °F44.6 °F59 %30.15 inNorthHaze
9:00 AM59.0 °F44.6 °F59 %30.18 inCalmHaze
10:00 AM60.8 °F44.6 °F55 %30.18 inCalmHaze
11:00 AM66.2 °F44.6 °F46 %30.18 inNorthHaze
1:00 PM68.0 °F42.8 °F40 %30.15 inNorthPartly Cloudy
2:00 PM69.8 °F42.8 °F38 %30.12 inNorthPartly Cloudy
3:00 PM71.6 °F42.8 °F35 %30.09 inNorthPartly Cloudy
4:00 PM71.6 °F42.8 °F35 %30.06 inNorthPartly Cloudy
5:00 PM69.8 °F42.8 °F38 %30.06 inNorthHaze
6:00 PM66.2 °F41.0 °F40 %30.06 inNorthHaze
7:00 PM62.6 °F42.8 °F48 %30.09 in2.5 miCalmHaze
8:00 PM59.0 °F39.2 °F48 %30.09 inNorthHaze
9:00 PM57.2 °F39.2 °F51 %30.09 inNorthHaze
10:00 PM57.2 °F39.2 °F51 %30.12 inNorthHaze
11:00 PM55.4 °F39.2 °F54 %30.12 in2.5 miCalmHaze
Hourly data recorded from OPPS, located miles away from Cherat, Pakistan







STORIES FROM OUR PARTNERS